This is the latest recevied weather packets stored in our database for station/object K6HN. If no packets are shown the sender has not sent any weather packets the latest 10 day(s).
| Time | Temp. | Humidity | Pressure | Rain* | Wind** | Luminosity | Snow |
|---|---|---|---|---|---|---|---|
| 1777875179 | 11.11° C | 50% | 1000 hPa | 0 mm | - | - | - |
| 1777874279 | 11.11° C | 50% | 1000 hPa | 0 mm | - | - | - |
| 1777873379 | 11.11° C | 50% | 1000 hPa | 0 mm | - | - | - |
| 1777872479 | 11.11° C | 50% | 999.7 hPa | 0 mm | - | - | - |
| 1777871579 | 11.11° C | 50% | 999.7 hPa | 0 mm | - | - | - |
| 1777870679 | 11.11° C | 50% | 999.7 hPa | 0 mm | - | - | - |
| 1777869779 | 11.11° C | 50% | 999.7 hPa | 0 mm | - | - | - |
| 1777868879 | 11.11° C | 51% | 999.3 hPa | 0 mm | - | - | - |
| 1777867979 | 11.11° C | 51% | 999.7 hPa | 0 mm | - | - | - |
| 1777867079 | 11.67° C | 51% | 999.3 hPa | 0 mm | - | - | - |
| 1777866179 | 11.67° C | 51% | 999 hPa | 0 mm | - | - | - |
| 1777844579 | 15.56° C | 49% | 998.6 hPa | 0 mm | - | - | - |
| 1777843679 | 16.11° C | 49% | 999 hPa | 0 mm | - | - | - |
| 1777842779 | 16.11° C | 49% | 998.6 hPa | 0 mm | - | - | - |
| 1777840079 | 15.56° C | 52% | 998.6 hPa | 0 mm | - | - | - |
| 1777835579 | 13.33° C | 53% | 999 hPa | 0.25 mm | - | - | - |
| 1777832879 | 13.89° C | 51% | 998.6 hPa | 0 mm | - | - | - |
| 1777829279 | 12.78° C | 52% | 998.6 hPa | 0 mm | - | - | - |
| 1777822079 | 11.11° C | 53% | 998.3 hPa | 0 mm | - | - | - |
| 1777820279 | 10.56° C | 52% | 998 hPa | 0 mm | - | - | - |
| 1777814879 | 10.56° C | 52% | 997 hPa | 0 mm | - | - | - |
| 1777811279 | 11.11° C | 52% | 996.3 hPa | 0 mm | - | - | - |
| 1777807679 | 11.11° C | 52% | 996.6 hPa | 0 mm | - | - | - |
| 1777803179 | 11.11° C | 52% | 996.6 hPa | 0 mm | - | - | - |
| 1777800479 | 11.11° C | 52% | 997 hPa | 0 mm | - | - | - |
* Rain latest hour (hover to see other rain measurements)
** Current wind speed in m/s (hover to see current wind gust speed)